TimeAKST,TemperatureF,Dew PointF,Humidity,Sea Level PressureIn,VisibilityMPH,Wind Direction,Wind SpeedMPH,Gust SpeedMPH,PrecipitationIn,Events,Conditions,WindDirDegrees,DateUTC
12:01 AM,-2.9,-7.1,82,30.39,10.0,North,5.8,-,N/A,,Clear,360,2013-01-17 09:01:00
1:01 AM,-4.0,-9.0,79,30.39,10.0,Calm,Calm,-,N/A,,Clear,0,2013-01-17 10:01:00
2:01 AM,-7.1,-11.0,83,30.39,10.0,East,3.5,-,N/A,,Clear,90,2013-01-17 11:01:00
3:01 AM,-7.1,-11.9,79,30.39,10.0,ENE,4.6,-,N/A,,Clear,70,2013-01-17 12:01:00
4:01 AM,-5.1,-9.0,83,30.39,10.0,NNW,8.1,-,N/A,,Clear,340,2013-01-17 13:01:00
5:01 AM,-8.0,-14.1,75,30.39,10.0,WNW,3.5,-,N/A,,Clear,300,2013-01-17 14:01:00
6:01 AM,-9.0,-14.1,79,30.40,10.0,NNW,8.1,-,N/A,,Clear,330,2013-01-17 15:01:00
7:01 AM,-5.1,-9.9,80,30.39,10.0,NNW,3.5,-,N/A,,Clear,340,2013-01-17 16:01:00
8:01 AM,-2.9,-9.9,72,30.40,10.0,NNW,3.5,-,N/A,,Scattered Clouds,340,2013-01-17 17:01:00
9:01 AM,-2.9,-9.0,75,30.41,10.0,NNW,8.1,-,N/A,,Clear,340,2013-01-17 18:01:00
10:01 AM,-4.0,-9.9,76,30.42,10.0,North,10.4,-,N/A,,Clear,350,2013-01-17 19:01:00
11:01 AM,-4.0,-9.9,76,30.43,10.0,NNE,11.5,-,N/A,,Clear,30,2013-01-17 20:01:00
12:01 PM,-2.0,-9.9,69,30.45,10.0,NNE,10.4,18.4,0.00,,Clear,20,2013-01-17 21:01:00
1:01 PM,1.0,-9.0,63,30.46,10.0,NNE,11.5,-,N/A,,Clear,30,2013-01-17 22:01:00
2:01 PM,1.0,-9.9,60,30.47,10.0,NE,12.7,-,N/A,,Clear,50,2013-01-17 23:01:00
3:01 PM,-0.9,-11.0,62,30.48,8.0,NE,5.8,-,N/A,,Clear,50,2013-01-18 00:01:00
4:01 PM,-2.0,-11.9,63,30.49,10.0,ENE,12.7,17.3,N/A,,Clear,60,2013-01-18 01:01:00
5:01 PM,-4.0,-13.0,65,30.51,10.0,Calm,Calm,-,N/A,,Clear,0,2013-01-18 02:01:00
6:01 PM,-5.1,-13.0,69,30.53,9.0,North,8.1,-,N/A,,Clear,350,2013-01-18 03:01:00
7:01 PM,-6.0,-14.1,68,30.54,10.0,NNE,5.8,-,N/A,,Clear,20,2013-01-18 04:01:00
8:01 PM,-4.0,-14.1,62,30.56,10.0,North,8.1,-,N/A,,Clear,10,2013-01-18 05:01:00
9:01 PM,-2.0,-13.0,60,30.58,10.0,NNE,9.2,-,N/A,,Clear,30,2013-01-18 06:01:00
10:01 PM,-0.9,-14.1,54,30.60,10.0,NE,6.9,-,N/A,,Clear,40,2013-01-18 07:01:00
11:01 PM,-8.0,-17.0,65,30.62,10.0,Calm,Calm,-,N/A,,Clear,0,2013-01-18 08:01:00